Theta_e
285 285 285 285 285 286 286 286 286 286 286 286 286 286 286 286 286 286 287 287 287 287 287 287 288 288 287 287 287 287 287 287 288 288 289 290 290 291 291 291 291 291 291 291 291 291 291 292 292 292 292 293 293 293 293 294 294 294 294 294 294 295 295 295 295 295 295 295 295 295 295 295 295 295 295 295 295 295 295 296 296 296 296 297 297 297
285 285 285 285 285 285 285 286 286 286 286 286 286 286 286 286 286 286 287 287 287 287 287 287 287 287 287 287 287 287 287 287 287 288 289 289 290 290 290 290 290 290 290 290 290 290 291 291 291 292 292 292 292 292 293 293 293 293 293 293 294 294 294 294 294 294 294 294 294 294 294 294 294 294 294 294 294 295 295 295 296 296 296 296 297 297
285 285 285 285 285 285 286 286 286 286 286 286 286 286 286 286 286 286 286 287 287 287 287 287 287 287 287 287 286 286 286 287 287 287 288 288 289 289 288 288 289 289 289 289 289 290 290 290 291 291 292 292 292 292 292 292 292 293 293 293 293 293 293 293 293 293 294 294 294 294 294 294 294 294 294 294 294 294 295 295 295 295 296 296 296 297
285 285 285 285 286 286 286 286 286 286 286 286 286 286 286 286 286 286 286 286 287 287 287 287 287 286 286 286 286 286 286 286 286 287 287 287 287 287 287 288 288 288 289 289 289 289 290 290 290 291 291 291 291 292 292 292 292 292 292 292 292 292 292 293 293 293 293 293 293 293 293 293 293 294 294 294 294 294 294 294 295 295 295 296 296 296
285 285 285 286 286 286 286 286 286 286 286 286 286 286 286 286 286 286 286 286 287 287 287 286 286 286 286 286 285 285 286 286 286 286 286 287 287 287 287 288 288 288 288 289 289 289 290 290 290 290 291 291 291 291 291 291 291 292 292 292 292 292 292 292 292 292 292 292 292 293 293 293 293 293 293 293 293 294 294 294 294 295 295 295 296 296
285 285 286 286 286 286 286 286 286 286 286 286 285 285 286 286 286 286 286 286 287 286 286 286 286 285 285 285 285 285 286 286 286 286 286 286 287 287 287 287 288 288 288 288 289 289 290 290 290 290 290 291 291 291 291 291 291 291 291 291 291 291 291 291 292 292 292 292 292 292 292 292 292 293 293 293 293 293 293 294 294 294 295 295 295 296
286 286 286 286 286 286 286 286 286 286 286 285 285 285 286 286 286 286 286 286 286 286 286 285 285 285 285 285 285 285 285 286 286 286 286 286 286 286 287 287 287 288 288 288 289 289 289 290 290 290 290 290 290 290 290 291 291 291 291 291 291 291 291 291 291 291 291 291 292 292 292 292 292 292 293 293 293 293 293 294 294 294 294 295 295 295
286 286 286 286 286 286 286 286 286 285 285 285 285 285 286 286 286 286 286 286 286 285 285 285 284 284 285 285 285 285 285 285 286 286 286 286 286 286 286 287 287 287 288 288 288 289 289 289 289 289 289 290 290 290 290 290 290 290 290 290 290 290 290 290 291 291 291 291 291 291 292 292 292 292 292 293 293 293 293 293 294 294 294 294 295 295
287 286 286 285 285 285 286 285 285 285 285 285 285 286 286 286 286 286 286 285 285 285 284 284 284 284 284 285 285 285 285 285 285 286 286 286 286 286 286 287 287 287 287 287 288 288 288 288 288 289 289 289 289 289 289 289 290 290 290 290 290 290 290 290 290 290 290 291 291 291 291 292 292 292 292 292 293 293 293 293 293 293 293 294 294 294
286 285 285 285 286 286 286 285 285 285 285 286 286 286 286 286 286 285 285 285 284 284 284 284 284 284 284 285 285 285 285 285 285 286 286 286 286 286 286 286 286 286 286 287 287 287 287 287 287 287 287 288 288 288 289 289 289 289 289 289 289 289 289 289 290 290 290 290 291 291 291 291 292 292 292 292 292 292 292 292 292 293 293 293 293 293
285 285 285 286 286 286 286 285 285 285 286 286 286 286 286 286 285 285 284 284 284 284 284 284 284 284 284 284 285 285 285 285 285 286 286 286 286 286 286 286 286 286 286 286 286 286 286 286 286 286 287 287 287 287 287 287 287 287 287 288 288 288 289 289 289 290 290 290 291 291 291 291 291 291 291 291 291 292 292 292 292 292 292 292 292 292
285 286 286 286 286 286 286 285 285 286 286 286 287 287 286 285 285 284 284 284 284 284 284 284 284 284 284 285 285 285 285 285 286 286 286 286 286 286 286 286 286 285 285 285 285 285 285 285 285 286 286 286 286 286 286 286 286 287 287 287 287 288 288 289 289 290 290 290 290 290 290 291 291 291 291 291 291 291 291 291 291 291 292 292 292 292
286 286 286 286 286 286 286 286 286 286 286 287 287 286 285 285 284 284 284 284 284 284 284 284 284 284 285 285 285 285 285 286 286 286 286 286 286 286 285 285 285 285 285 285 285 285 285 285 285 285 285 285 285 285 286 286 286 286 286 287 288 288 289 289 289 289 290 290 290 290 290 290 290 290 290 291 291 291 291 291 291 291 291 292 292 292
286 286 287 287 286 286 286 286 286 286 287 287 286 285 285 284 284 283 283 284 284 284 284 284 284 285 285 285 285 286 286 286 286 286 286 286 285 285 285 285 285 285 284 284 284 284 284 284 285 285 285 285 285 285 285 285 286 286 287 287 288 288 289 289 289 289 289 289 289 289 290 290 290 290 290 290 290 291 291 291 291 291 291 291 291 291
286 287 287 287 286 286 286 286 286 286 287 286 286 285 284 284 283 283 284 284 284 284 284 284 285 285 285 285 286 286 286 286 286 286 285 285 285 285 285 284 284 284 284 284 284 284 284 284 284 284 284 284 284 285 285 285 286 286 287 287 288 288 288 288 288 289 289 289 289 289 289 290 290 290 290 290 290 290 290 290 291 291 291 291 291 291
287 287 287 286 286 286 286 286 286 286 286 286 285 284 284 284 284 284 284 284 284 284 284 285 285 285 285 286 286 286 286 286 286 285 285 285 285 284 284 284 284 284 284 284 284 284 284 284 284 284 284 284 284 285 285 286 286 287 287 287 288 288 288 288 288 288 288 289 289 289 289 289 289 289 290 290 290 290 290 290 290 290 290 290 291 291
287 287 287 286 286 286 286 286 286 286 285 285 284 284 284 284 284 284 284 284 284 285 285 285 285 285 286 286 286 286 286 286 285 285 285 284 284 284 284 284 283 283 283 283 284 284 284 284 284 284 284 284 284 285 285 286 286 286 287 287 287 287 288 288 288 288 288 289 289 289 289 289 289 289 289 289 289 290 290 290 290 290 290 290 290 290
287 287 287 287 287 287 286 286 285 285 285 284 284 284 284 284 284 284 284 284 284 285 285 285 286 286 286 286 286 286 286 285 285 284 284 284 284 283 283 283 283 283 283 283 283 283 284 284 284 284 284 284 284 285 285 285 286 286 286 287 287 287 287 288 288 288 288 288 288 289 289 289 289 289 289 289 289 289 289 290 290 290 290 290 290 290
287 287 287 287 287 286 285 285 285 284 284 284 284 284 284 284 284 284 284 285 285 285 286 286 286 286 286 286 286 286 285 284 284 283 283 283 283 283 283 283 283 283 283 283 283 283 283 283 283 284 284 284 284 284 285 285 285 286 286 287 287 287 287 288 288 288 288 288 288 288 289 289 289 289 289 289 289 289 289 289 289 289 290 290 290 290
287 287 287 286 286 285 284 284 284 284 284 284 284 284 284 284 284 284 285 285 285 286 286 286 286 286 286 286 285 285 284 284 283 283 283 283 283 283 283 283 283 283 283 283 283 283 283 283 283 283 283 284 284 284 284 285 285 286 286 286 287 287 287 287 287 288 288 288 288 288 288 288 288 288 289 289 289 289 289 289 289 289 289 290 290 290
287 287 286 286 285 284 284 284 284 284 284 285 285 285 285 285 285 285 285 286 286 286 286 286 286 286 285 285 284 284 283 283 283 282 282 282 282 283 283 283 283 283 283 283 283 283 283 283 283 283 283 283 284 284 284 285 285 285 286 286 286 286 287 287 287 287 287 288 288 288 288 288 288 288 288 288 289 289 289 289 289 289 289 289 289 289
287 286 286 285 284 284 284 284 284 285 285 285 285 285 285 285 285 285 286 286 286 286 286 285 285 284 284 283 283 283 283 282 282 282 282 282 282 282 282 283 283 282 283 283 283 283 283 283 283 283 283 283 284 284 284 284 285 285 285 286 286 286 286 287 287 287 287 287 287 288 288 288 288 288 288 288 288 288 288 288 288 289 289 289 289 289
286 286 285 285 285 284 285 285 285 285 286 286 286 286 286 286 286 286 286 286 286 285 284 284 284 283 283 283 282 282 282 282 282 282 282 282 282 282 282 282 282 282 282 283 283 283 283 283 283 283 283 283 283 284 284 284 285 285 285 285 286 286 286 286 286 287 287 287 287 287 287 288 288 288 288 288 288 288 288 288 288 288 288 288 288 288
286 286 285 285 285 285 285 286 286 286 286 286 286 287 287 287 287 286 287 286 285 284 283 283 283 283 282 282 282 282 282 282 282 282 282 282 282 282 282 282 282 282 282 282 283 283 283 283 283 283 283 283 283 283 284 284 284 285 285 285 285 286 286 286 286 286 287 287 287 287 287 287 287 287 287 287 287 287 287 287 287 288 288 288 288 288
286 286 286 286 286 286 287 287 287 287 287 287 287 287 288 287 287 286 285 284 284 283 283 283 282 282 282 282 282 282 282 282 282 281 281 282 282 282 282 282 282 282 282 282 282 282 282 282 282 282 283 283 283 283 283 284 284 284 284 285 285 285 285 286 286 286 286 286 286 286 286 286 287 287 287 287 287 287 287 287 287 287 287 287 288 288
287 287 287 287 287 287 288 288 288 288 287 287 287 287 287 286 285 285 284 284 283 283 282 282 282 282 282 282 281 281 281 281 281 281 281 281 282 282 282 282 282 282 282 282 282 282 282 282 282 282 282 283 283 283 283 283 283 284 284 284 285 285 285 285 285 286 286 286 286 286 286 286 286 286 286 287 287 287 287 287 287 287 287 287 287 287
287 287 287 287 287 287 287 287 286 286 286 286 286 286 286 285 284 284 283 283 283 282 282 282 282 281 281 281 281 281 281 281 281 281 281 281 281 282 282 282 282 282 282 282 282 282 282 282 282 282 282 282 282 283 283 283 283 283 284 284 284 285 285 285 285 285 285 285 285 286 286 286 286 286 286 286 286 286 287 287 287 287 287 287 287 287
286 286 286 286 286 286 286 286 285 285 285 285 285 285 284 284 284 283 283 282 282 282 282 281 281 281 281 281 281 281 281 281 281 281 281 281 281 282 282 282 282 282 282 282 282 282 282 282 282 282 282 282 282 282 282 283 283 283 283 283 284 284 284 284 284 285 285 285 285 285 285 285 286 286 286 286 286 286 286 286 286 287 287 287 287 287
285 286 286 286 286 285 285 285 285 285 284 284 284 284 284 283 283 282 282 282 281 281 281 281 281 281 281 281 281 281 281 281 281 281 281 281 281 281 281 281 281 281 281 281 281 281 282 282 282 282 282 282 282 282 282 282 282 282 283 283 283 283 284 284 284 284 285 285 285 285 285 285 285 285 286 286 286 286 286 286 286 286 286 286 286 286
286 286 286 285 285 285 284 284 284 285 284 284 284 283 283 282 282 281 281 280 280 280 280 280 280 280 280 280 281 281 281 281 281 281 281 281 281 281 281 281 281 281 281 281 281 281 281 282 282 282 282 282 282 282 282 282 282 282 282 283 283 283 283 284 284 284 284 284 284 285 285 285 285 285 285 285 285 286 286 286 286 286 286 286 286 286
286 286 285 285 285 284 284 284 284 284 284 284 283 283 282 281 281 280 280 280 280 280 280 280 280 280 280 280 281 281 281 281 281 281 281 281 281 281 281 281 281 281 281 281 281 281 281 282 282 282 282 282 282 282 282 282 282 282 282 283 283 283 283 283 283 284 284 284 284 284 284 285 285 285 285 285 285 285 285 285 286 286 286 286 286 286
286 285 285 285 284 284 284 284 284 284 283 283 283 282 281 280 280 280 280 280 280 280 280 280 280 280 280 280 281 281 281 281 281 281 280 280 280 280 280 280 280 280 280 280 280 280 281 281 281 281 281 281 282 282 282 282 282 282 283 283 283 283 283 283 283 283 284 284 284 284 284 284 284 284 284 285 285 285 285 285 285 285 285 285 285 285
285 285 284 284 284 284 284 283 283 283 282 282 281 280 280 280 280 280 280 280 280 280 280 280 280 280 280 280 280 280 280 280 280 280 280 280 280 280 280 280 280 280 280 280 280 280 280 281 281 281 281 281 282 282 282 282 282 282 282 283 283 283 283 283 283 283 283 283 283 283 284 284 284 284 284 284 284 284 284 285 285 285 285 285 285 285
284 284 284 284 284 283 283 283 282 282 281 280 280 279 279 279 279 279 279 279 279 279 279 280 280 280 280 280 280 280 280 280 280 280 280 280 280 280 280 280 280 280 280 280 280 280 280 280 281 281 281 281 282 282 282 282 282 282 283 283 283 283 283 283 283 283 283 283 283 283 283 283 283 283 284 284 284 284 284 284 284 285 285 285 285 285
284 284 283 283 283 283 282 282 281 281 280 279 279 279 279 279 279 279 279 279 279 279 279 279 279 279 279 279 279 279 279 279 279 279 279 279 279 280 279 280 280 280 280 280 280 280 280 280 281 281 281 281 281 282 282 282 282 282 282 283 283 283 283 283 283 283 283 283 283 283 283 283 283 283 283 283 284 284 284 284 285 285 285 285 286 286
283 283 283 282 282 281 281 281 280 280 279 279 279 279 279 279 279 279 278 278 278 278 278 278 278 278 278 278 278 278 279 279 279 279 279 279 279 279 279 279 279 279 279 280 280 280 280 280 280 281 281 281 281 282 282 282 282 282 282 282 282 282 282 282 283 283 283 283 283 283 283 283 283 283 283 284 284 284 284 284 285 285 285 285 285 286
282 282 282 281 281 280 280 279 279 279 279 279 279 279 278 278 278 278 278 278 278 278 277 277 277 277 278 278 278 278 278 278 278 278 278 279 279 279 279 279 279 279 279 280 280 280 280 280 280 280 281 281 281 282 282 282 282 282 282 282 282 282 282 282 283 283 283 283 283 283 283 283 283 283 283 284 284 284 284 284 284 284 284 284 285 285
282 281 281 280 280 279 279 279 279 279 279 278 278 278 278 278 278 277 277 277 277 277 277 277 277 277 277 278 278 278 278 278 278 278 278 278 278 278 279 279 279 279 279 279 280 280 280 280 280 281 281 281 281 281 282 282 282 282 282 282 282 282 283 283 283 283 283 283 283 283 283 283 283 283 283 283 283 283 283 283 283 283 283 284 284 284
281 280 280 280 279 279 279 278 278 278 278 278 278 278 277 277 277 277 277 277 277 277 277 277 277 277 277 277 277 278 278 278 278 278 278 278 278 278 278 279 279 279 279 279 279 279 280 280 280 280 281 281 281 281 281 282 282 282 282 282 282 283 283 283 283 283 283 283 283 283 283 283 283 283 283 283 283 283 283 283 283 283 283 283 283 283
280 280 279 279 279 279 278 278 278 278 278 277 277 277 277 277 277 277 277 276 276 276 276 276 277 277 277 277 277 277 278 278 278 278 278 278 278 278 278 278 279 279 279 279 279 279 280 280 280 280 280 281 281 281 281 282 282 282 282 282 283 283 283 283 283 283 283 283 283 283 283 283 283 283 283 283 283 283 283 283 283 283 283 283 283 283
279 279 279 279 278 278 278 278 278 277 277 277 277 277 277 277 276 276 276 276 276 276 276 277 277 277 277 277 277 277 278 278 278 278 278 279 279 279 279 279 279 279 279 279 279 279 280 280 280 280 280 281 281 281 281 282 282 282 282 283 283 283 283 283 283 283 283 283 283 283 283 283 283 282 282 282 282 282 282 282 282 282 282 282 282 282
279 278 278 278 278 278 278 277 277 277 277 277 277 277 276 276 276 276 276 276 276 276 277 277 277 277 277 277 277 277 278 278 278 278 279 279 279 279 279 279 279 279 279 279 279 280 280 280 280 280 281 281 281 281 282 282 282 282 282 282 282 282 283 283 283 283 283 283 283 283 282 282 282 282 282 282 282 282 282 282 282 282 282 282 282 282
279 278 278 278 278 277 277 277 277 277 277 277 276 276 276 276 276 276 276 276 276 276 277 277 277 277 277 277 278 278 278 278 278 279 279 279 279 279 279 279 279 279 279 279 280 280 280 280 280 281 281 281 281 281 281 282 282 282 282 282 282 283 283 283 283 283 283 283 282 282 282 282 282 282 282 282 282 282 282 282 282 282 282 282 282 282
278 278 278 277 277 277 277 277 277 277 277 276 276 276 275 276 276 276 276 276 276 276 276 277 277 277 277 278 278 278 278 278 278 279 279 279 279 279 280 280 280 280 280 280 280 280 280 280 281 281 281 281 281 281 282 282 282 282 282 282 282 283 283 283 283 283 282 282 282 282 282 282 281 281 281 281 281 281 281 281 282 282 282 282 282 282
278 277 277 277 277 277 277 277 277 276 276 276 275 275 275 275 276 276 276 276 276 276 277 277 277 277 277 278 278 278 278 278 278 279 279 279 279 280 280 280 280 280 280 280 280 280 280 281 281 281 281 281 281 281 282 282 282 282 282 282 282 282 282 282 282 282 282 282 282 282 281 281 281 281 281 281 281 281 281 281 281 282 282 282 282 282
277 277 276 276 276 277 277 276 276 276 275 275 275 275 275 275 276 276 276 276 276 277 277 277 277 277 278 278 278 278 278 278 278 279 279 279 279 280 280 280 280 280 280 280 280 280 281 281 281 281 281 281 281 282 282 282 282 282 282 282 282 282 282 282 282 282 282 281 281 281 281 281 281 281 281 281 281 281 281 281 282 282 282 282 282 282
276 276 276 276 276 276 276 276 275 275 275 275 275 275 275 276 276 276 276 277 277 277 277 277 277 278 278 278 278 278 278 278 279 279 279 279 280 280 280 280 280 280 280 281 281 281 281 281 281 281 281 281 282 282 282 282 282 282 282 282 282 282 282 282 282 281 281 281 281 281 281 281 281 281 281 281 281 282 282 282 282 282 282 282 282 282
276 276 276 276 276 276 275 275 275 275 275 275 275 275 276 276 276 276 277 277 277 277 277 277 277 278 278 278 278 278 278 279 279 279 279 279 280 280 280 280 280 280 280 281 281 281 281 281 281 281 281 281 282 282 282 282 282 282 282 282 282 282 281 281 281 281 281 281 281 281 281 281 281 281 281 281 281 281 282 282 282 282 282 282 282 282
276 276 276 276 275 275 275 275 275 275 275 275 275 276 276 276 276 277 277 277 277 277 277 277 277 278 278 278 278 278 279 279 279 279 279 279 280 280 280 280 280 280 280 281 281 281 281 281 281 281 282 282 282 282 282 282 282 282 282 282 281 281 281 281 281 281 281 281 281 281 281 281 281 281 281 281 281 281 282 282 282 282 282 282 282 282
276 276 275 275 275 275 274 274 275 275 275 275 276 276 276 276 276 277 277 277 277 277 277 277 278 278 278 278 278 278 279 279 279 279 279 279 280 280 280 280 280 280 280 281 281 281 281 281 281 282 282 282 282 282 282 282 282 282 281 281 281 281 281 281 281 281 281 281 281 281 281 281 281 281 281 281 281 282 282 282 282 282 282 282 282 282
275 275 275 275 274 274 274 275 275 275 275 276 276 276 276 277 277 277 277 277 277 277 277 278 278 278 278 278 278 279 279 279 279 279 279 279 280 280 280 280 280 280 281 281 281 281 281 281 281 281 281 282 282 282 282 282 281 281 281 281 281 281 281 281 281 281 281 281 281 281 281 281 281 281 281 281 281 282 282 282 282 282 282 282 282 283
Wind_Speed
14 16 17 17 17 18 18 18 19 20 22 23 23 24 23 23 22 22 21 20 19 19 19 18 18 18 18 18 18 19 19 18 18 17 17 18 18 18 19 19 19 19 18 18 18 17 17 17 17 17 18 18 18 18 19 19 19 19 19 20 20 20 20 20 20 20 20 20 20 20 21 21 21 21 21 21 21 21 21 21 22 22 22 22 22 22
14 15 16 16 16 16 17 17 18 19 21 23 23 24 23 24 24 23 22 20 20 19 19 19 19 19 19 19 20 20 19 19 18 18 18 18 19 19 19 19 18 18 17 17 17 17 17 17 18 18 18 19 19 19 19 20 20 20 20 20 21 21 21 21 21 21 21 21 21 21 21 21 21 21 21 21 21 21 22 22 22 22 22 22 22 22
14 14 15 14 14 14 15 16 18 19 20 22 23 23 23 23 23 23 22 21 20 20 19 19 19 19 20 20 21 21 20 19 19 19 18 19 19 18 18 17 17 17 17 17 17 17 18 18 19 19 19 20 20 20 20 21 21 21 21 21 21 21 21 21 21 21 21 21 22 22 22 22 22 22 21 21 22 22 22 22 22 22 22 22 22 22
13 13 14 14 13 13 14 16 18 19 20 21 22 22 22 22 22 22 22 21 21 20 19 19 19 20 20 21 21 21 20 20 19 19 19 18 18 17 16 16 16 16 17 17 18 18 19 19 20 20 20 21 21 21 21 21 22 22 22 22 22 22 22 22 22 22 22 22 22 22 22 22 22 22 22 22 22 22 22 22 22 22 22 22 23 23
12 12 13 13 13 13 14 16 17 19 20 21 21 21 21 21 21 21 21 20 20 20 19 19 19 20 21 22 22 22 21 20 19 19 18 18 17 16 16 16 16 17 18 18 19 19 20 20 20 21 21 21 21 22 22 22 22 22 22 22 22 22 22 22 22 22 22 22 22 22 22 22 22 22 22 22 22 22 23 23 23 23 23 23 23 23
11 11 12 12 13 14 15 16 17 18 19 20 20 21 20 20 20 20 20 19 19 19 19 20 20 20 21 21 22 22 21 21 20 19 18 17 17 17 17 17 17 18 19 19 20 20 20 21 21 21 22 22 22 22 22 22 22 22 22 22 22 22 22 22 23 23 23 23 23 23 23 23 23 23 23 23 23 23 23 23 23 23 23 23 23 23
12 12 12 12 13 14 14 15 15 17 18 19 20 21 20 20 19 19 18 18 19 19 20 21 21 21 21 21 21 22 22 22 21 20 19 18 18 17 18 18 18 19 19 20 20 20 21 21 21 22 22 22 22 23 23 23 23 22 22 22 23 23 23 23 23 23 23 23 23 23 23 23 24 24 24 24 23 23 24 24 24 24 24 24 24 24
12 12 12 13 13 14 14 14 14 15 17 19 20 21 21 20 19 18 18 18 18 19 21 22 22 22 21 21 22 22 23 22 22 21 20 19 19 19 19 19 19 19 20 20 20 21 21 22 22 22 22 23 23 23 23 22 22 22 22 22 22 23 23 23 23 23 23 23 24 24 24 24 24 24 24 24 24 24 24 24 24 24 24 24 24 24
12 13 14 13 13 13 14 14 14 15 17 19 20 20 20 20 19 19 18 18 19 19 20 22 22 22 22 22 22 22 22 22 21 20 19 19 19 19 19 19 19 20 20 21 21 21 22 22 22 22 22 23 23 22 22 22 22 22 22 22 22 23 23 23 23 24 24 24 24 24 24 24 24 24 24 24 24 25 25 25 25 25 25 25 25 25
13 14 14 13 13 12 13 14 16 16 17 18 18 17 17 17 19 20 20 20 20 20 20 21 22 22 23 23 23 22 22 21 20 19 18 18 18 19 19 20 21 21 22 22 22 22 22 22 22 23 23 22 22 22 22 22 22 22 22 23 23 23 23 24 24 24 24 24 24 24 24 24 25 25 25 25 25 25 25 26 26 26 26 26 26 26
13 13 13 13 12 12 12 14 16 17 17 17 16 14 13 14 17 19 21 21 21 21 20 20 20 21 23 24 24 23 22 21 21 20 19 19 19 20 21 21 22 23 23 23 23 23 23 23 23 23 23 22 22 22 22 22 22 23 23 24 24 24 24 24 24 24 24 24 25 25 25 25 25 26 26 26 26 26 26 27 27 27 27 27 27 27
12 12 12 12 12 12 13 14 15 16 16 15 13 13 13 14 16 18 19 20 21 21 21 21 21 21 22 23 24 23 21 21 21 21 21 21 21 22 22 23 24 24 24 25 24 24 24 23 23 23 22 22 22 22 22 23 24 24 24 24 24 24 24 24 24 25 25 25 25 26 26 26 26 27 27 27 27 27 27 27 27 27 27 27 27 27
12 11 11 11 11 12 13 14 14 14 13 12 11 12 13 16 17 18 18 19 20 21 21 22 22 22 22 22 21 21 20 20 20 21 21 21 22 22 23 24 25 26 26 26 26 25 25 24 23 23 23 23 23 23 24 24 24 24 24 24 24 24 25 25 25 25 26 26 26 27 27 27 27 27 27 28 28 28 28 28 28 28 28 28 28 28
12 11 10 10 11 11 12 13 13 12 12 11 11 13 15 17 18 17 17 18 19 20 21 22 22 22 21 20 18 17 18 19 21 22 22 22 22 22 23 25 26 26 26 26 26 26 25 24 24 24 24 25 25 25 25 25 25 24 24 24 25 25 26 26 26 27 27 27 27 27 28 28 28 28 28 28 28 28 28 28 28 28 28 28 28 28
11 10 9 9 10 11 12 12 12 12 12 12 13 15 17 17 17 16 16 17 18 20 20 21 22 22 19 17 15 15 16 19 21 23 24 24 23 23 23 25 26 27 26 26 25 25 25 24 24 25 26 26 26 26 26 25 25 25 25 25 26 26 27 27 27 28 28 28 28 28 28 28 28 28 28 29 29 29 29 29 29 29 29 29 29 29
10 8 8 9 11 12 11 11 11 11 12 13 15 15 16 16 16 16 16 17 18 19 19 20 20 20 18 16 14 14 16 19 22 24 25 25 25 24 24 25 26 27 26 25 25 25 25 25 25 26 26 27 26 26 25 25 25 26 26 27 27 28 28 28 28 28 28 28 28 29 29 29 29 29 29 29 29 29 29 29 29 29 29 29 29 29
8 8 9 10 11 11 11 11 11 12 13 14 15 15 14 15 15 16 16 17 18 17 17 16 14 13 14 17 16 15 17 21 23 25 26 27 27 26 24 24 25 26 26 25 25 25 25 25 26 26 26 26 26 26 26 26 27 27 28 28 28 28 29 29 29 29 29 29 29 29 29 29 30 30 30 30 30 30 30 30 30 29 30 30 30 30
8 9 10 11 10 10 11 11 12 13 14 14 14 14 14 15 16 17 17 17 17 16 16 15 14 12 11 15 17 18 20 22 24 26 27 27 28 27 25 24 24 25 26 25 25 25 25 25 26 26 27 26 26 26 27 27 28 28 29 29 29 29 29 29 29 30 30 30 30 30 30 30 30 30 30 30 30 30 30 30 30 30 30 30 30 30
10 11 10 9 9 10 11 12 13 13 13 13 14 14 15 16 17 17 18 17 16 16 15 15 15 15 16 18 20 22 22 23 24 25 26 27 28 27 25 24 24 25 25 25 25 25 25 26 27 27 27 27 27 27 28 28 28 29 29 29 29 30 30 30 30 30 30 30 30 31 31 31 31 31 31 31 31 31 31 31 31 30 30 30 30 30
11 11 10 9 10 12 13 13 13 13 13 13 14 15 16 18 18 18 18 17 16 16 15 15 15 17 19 22 24 25 25 25 24 24 24 25 26 26 24 23 23 24 25 25 25 25 25 26 27 27 27 27 27 28 28 28 29 29 29 30 30 30 30 30 30 31 31 31 31 31 31 31 31 31 31 31 31 31 31 31 31 31 31 31 31 31
12 11 10 10 11 12 14 14 15 14 14 14 15 15 17 18 19 18 18 17 16 14 14 14 16 19 21 24 26 27 26 24 23 22 22 23 24 24 22 21 22 23 25 25 25 25 25 26 26 27 27 27 27 28 28 29 29 29 30 30 30 30 30 30 30 30 31 31 31 31 31 31 32 32 32 32 31 31 31 31 31 31 31 31 31 31
14 14 13 12 13 14 16 17 17 17 16 16 16 16 18 19 19 18 18 16 14 13 14 16 19 22 25 26 28 28 26 23 21 20 20 20 22 23 22 20 21 22 24 25 25 25 25 25 26 27 27 27 28 28 29 29 29 29 29 30 30 30 30 30 30 30 30 30 31 31 31 31 32 32 32 32 32 32 32 32 32 32 32 32 32 32
17 17 17 17 17 17 18 19 19 19 18 17 17 18 19 21 21 19 17 14 13 14 17 20 23 26 27 27 27 26 24 21 19 18 17 16 19 22 21 20 20 22 23 24 24 24 25 25 26 26 27 27 28 28 28 29 29 29 29 29 29 29 29 29 29 29 30 30 30 31 31 31 32 32 32 33 33 33 33 33 33 33 33 33 33 33
19 19 19 18 18 19 20 20 20 19 17 17 18 20 21 21 19 17 15 15 17 19 21 23 25 25 25 24 23 22 20 18 16 15 15 15 18 21 22 21 21 22 23 24 23 24 25 26 26 26 27 27 28 28 27 27 27 27 27 27 27 28 28 28 28 29 29 30 30 31 31 32 32 33 33 33 34 34 34 34 34 34 33 33 34 33
17 18 18 18 18 18 19 18 17 16 16 17 19 19 18 17 16 16 18 20 22 22 23 23 23 22 22 21 20 20 18 16 14 14 15 16 19 22 22 20 20 22 23 24 24 24 25 26 27 27 26 27 27 27 26 26 25 25 26 26 26 26 27 27 28 29 29 30 31 31 32 32 33 33 33 33 33 34 34 34 34 34 34 34 34 34
16 17 17 17 17 17 17 17 17 17 18 18 18 17 17 17 18 19 21 21 21 21 21 20 19 19 20 20 19 19 18 16 14 14 15 16 19 21 21 20 19 21 23 25 25 24 25 26 26 26 26 26 26 25 25 24 24 24 24 25 25 26 27 28 28 29 30 31 31 32 32 32 33 33 33 33 33 33 33 33 34 34 34 34 34 35
16 16 16 17 17 17 17 18 18 18 17 16 16 16 17 18 19 20 20 20 20 19 18 16 15 16 18 18 18 19 18 17 16 15 16 17 18 19 20 19 19 21 24 25 25 24 24 25 25 25 25 25 24 24 23 22 22 23 24 25 26 27 28 29 29 30 31 31 31 31 32 32 32 32 32 32 33 33 33 33 33 34 34 34 34 34
16 17 17 17 17 16 16 17 17 17 16 16 16 16 16 17 18 19 20 20 19 18 17 15 13 13 14 16 18 20 20 19 17 16 16 16 16 17 19 20 20 22 23 25 26 25 23 23 23 24 24 23 22 21 21 21 22 23 25 26 27 28 28 29 29 29 30 30 30 31 31 31 31 32 32 32 32 32 33 33 33 33 33 33 32 32
16 16 16 16 15 15 16 17 18 18 18 18 17 17 17 18 19 20 22 21 19 17 16 16 15 14 15 18 20 22 21 18 16 14 13 13 15 17 19 20 21 21 22 23 25 25 22 20 19 20 20 20 20 20 22 23 24 26 26 27 27 27 27 27 28 28 29 29 30 30 30 31 31 31 32 32 32 32 32 32 32 32 32 32 31 30
16 16 15 15 15 16 17 19 20 20 20 20 20 21 22 22 23 23 23 21 18 16 15 15 15 15 15 17 17 16 15 14 11 10 11 13 15 18 20 20 20 20 19 19 18 17 18 19 17 16 17 19 21 22 24 25 26 26 26 26 26 26 26 26 27 28 28 29 29 29 30 30 30 31 31 31 32 32 32 32 32 31 31 31 30 30
14 14 14 15 17 18 19 20 21 22 23 24 25 26 26 25 23 21 19 17 16 15 14 14 15 15 14 13 9 7 7 11 12 11 13 15 16 18 20 20 20 20 18 15 9 6 12 16 18 18 18 20 23 24 24 25 25 25 25 25 26 26 26 26 26 27 27 28 28 29 29 30 30 31 31 31 32 32 32 32 31 31 31 30 30 30
12 13 14 17 19 20 21 22 23 24 25 26 27 26 24 21 18 15 13 13 14 14 14 14 15 15 15 14 10 9 12 16 17 16 16 16 17 19 19 19 20 20 19 16 13 10 8 10 17 24 23 23 24 24 24 24 24 25 25 25 25 26 25 25 26 26 27 27 28 28 29 30 30 31 31 31 32 32 32 31 31 30 30 30 30 30
13 15 17 19 21 21 22 23 24 25 26 26 25 23 20 16 13 11 11 11 12 13 14 14 15 15 16 17 17 18 20 21 20 18 16 15 16 18 19 19 20 20 20 19 18 17 14 15 21 26 27 26 25 24 24 24 24 24 24 24 25 25 25 25 26 26 27 28 28 29 29 30 30 30 31 31 31 31 31 31 30 30 29 29 29 29
16 18 19 21 22 23 24 24 25 26 26 24 22 18 15 12 11 10 11 11 12 13 14 15 15 16 16 17 19 21 23 22 19 17 15 15 16 18 20 20 20 20 20 20 20 20 20 22 23 24 25 27 26 25 24 24 24 23 23 24 24 25 26 26 27 28 28 29 29 29 29 29 29 29 29 29 29 29 29 29 29 29 29 29 29 29
17 19 20 21 22 23 24 25 25 25 24 21 18 15 13 11 11 11 12 13 14 15 16 17 17 18 18 18 19 20 22 22 19 17 15 16 17 18 20 20 20 20 20 20 20 19 19 22 23 23 23 25 27 26 24 23 23 23 23 24 24 25 26 27 28 29 29 29 29 29 29 29 28 28 28 28 28 28 29 29 29 30 30 30 30 30
18 20 21 22 22 23 24 24 24 23 20 17 15 13 12 12 13 14 14 15 16 18 19 20 20 20 20 20 21 22 23 23 21 19 18 18 19 19 19 20 21 21 20 20 20 20 19 21 23 24 23 22 23 25 26 25 24 24 24 24 25 26 27 27 28 29 29 29 29 29 28 28 28 28 28 28 28 29 29 30 30 30 30 30 30 30
19 20 21 21 22 22 23 23 21 19 17 15 14 13 14 15 16 16 17 17 18 18 19 20 20 21 21 22 23 24 25 25 24 23 23 23 22 22 21 22 22 22 20 20 20 21 21 20 22 23 23 21 21 23 26 28 27 26 25 26 26 27 27 28 27 28 28 29 29 29 29 28 28 28 29 29 29 29 30 30 30 30 30 30 30 31
19 20 21 21 21 21 21 20 18 16 14 14 14 15 16 17 17 17 17 17 17 18 18 19 20 21 21 22 23 25 26 27 28 28 28 27 27 25 24 23 23 23 21 21 22 22 21 19 16 15 17 21 24 26 28 28 28 28 28 28 28 27 27 27 27 27 28 28 29 29 29 29 29 29 29 29 29 29 29 29 29 28 28 29 29 30
19 20 21 21 20 19 18 16 15 14 14 15 16 17 17 16 16 15 16 16 17 17 18 18 19 20 21 22 23 24 26 27 28 28 28 28 28 27 26 25 24 24 23 23 23 23 23 21 18 15 16 20 25 28 29 29 29 29 31 31 30 29 27 27 27 28 29 29 30 30 30 29 29 28 28 29 28 28 28 28 28 27 27 27 28 29
19 20 20 19 18 16 14 13 14 15 16 17 17 16 15 14 14 15 16 16 17 17 17 17 18 19 21 22 22 23 24 25 26 26 26 26 27 27 26 25 25 25 25 24 23 23 23 23 23 23 24 24 25 27 30 30 30 30 30 30 29 29 30 29 29 30 30 30 29 29 29 29 28 27 28 28 28 28 28 28 28 28 27 27 27 28
19 19 18 17 15 13 13 14 15 16 16 16 15 14 14 14 15 16 17 17 16 15 15 16 17 18 20 21 22 22 23 23 24 24 24 25 25 25 26 26 26 26 25 24 24 24 24 24 25 25 27 27 28 29 30 31 31 31 30 28 29 32 33 32 31 30 29 28 28 28 28 28 29 29 29 29 29 30 30 29 30 30 29 29 28 28
17 16 16 15 14 14 15 16 16 16 14 14 13 13 13 14 15 16 16 16 15 14 14 15 16 18 20 20 21 21 21 21 22 22 23 23 23 24 25 26 26 26 25 25 25 25 24 25 26 27 27 28 28 28 30 32 33 32 30 29 31 33 34 33 30 28 27 27 28 28 28 29 29 29 30 30 30 31 30 30 30 30 30 29 29 28
16 15 15 16 16 17 17 16 15 14 13 13 13 13 13 14 14 15 14 14 14 15 15 15 16 17 18 20 20 20 20 20 21 21 21 22 22 23 24 25 26 26 26 25 25 25 26 26 26 27 28 28 28 28 29 32 33 33 31 30 30 29 27 30 31 30 28 29 30 30 29 29 30 31 31 30 30 30 31 31 31 31 30 29 29 29
16 16 17 17 17 16 15 13 12 12 12 12 13 13 14 15 15 15 14 15 15 15 16 16 16 17 18 19 20 21 21 20 20 20 20 20 21 21 22 23 25 26 26 25 25 25 26 26 26 27 28 28 29 29 30 31 32 32 32 31 30 28 26 29 33 34 33 32 32 31 30 30 30 30 31 32 32 31 31 31 31 31 31 30 30 30
17 18 17 16 15 13 12 12 12 12 12 13 13 14 15 15 14 14 14 15 15 16 16 16 16 16 16 17 19 20 20 21 21 20 20 20 20 20 21 22 24 25 25 26 25 25 25 26 28 29 28 28 28 29 30 31 32 33 33 32 31 30 32 34 34 33 33 33 33 33 32 31 30 30 30 31 31 31 32 31 31 31 31 31 31 31
17 16 16 14 13 12 12 12 12 13 13 14 14 14 14 14 14 15 15 15 15 16 16 15 15 15 15 17 18 19 20 21 21 21 20 20 20 20 21 22 23 24 25 26 26 26 27 28 29 30 30 30 29 30 31 31 31 32 32 32 31 31 32 33 33 33 33 33 33 33 32 31 30 29 29 31 32 32 32 31 30 30 30 30 30 30
15 14 13 12 12 12 12 13 13 13 13 13 14 14 14 14 14 14 14 14 15 15 15 15 15 15 16 18 18 19 20 21 22 22 22 22 21 21 22 22 23 23 24 25 26 27 28 29 29 29 29 29 29 30 31 31 31 30 31 31 31 30 31 32 32 33 32 32 32 33 33 32 30 29 29 30 31 32 32 31 31 30 30 30 29 30
13 12 12 12 12 12 13 13 13 12 12 13 13 14 14 14 13 13 14 14 14 15 15 15 15 16 17 18 18 19 20 21 22 23 23 23 23 22 22 23 23 23 24 25 25 26 27 29 29 29 29 28 27 28 31 32 31 30 30 30 30 29 30 32 33 33 32 32 33 33 33 30 29 29 31 31 31 32 32 32 32 31 31 30 30 30
11 11 11 11 11 11 11 11 11 12 12 13 14 14 14 14 13 13 14 14 15 15 15 15 16 16 17 18 18 19 20 21 22 22 23 23 23 23 23 24 24 24 24 25 25 26 26 27 27 27 27 27 27 28 30 31 31 31 30 30 29 28 29 31 32 32 31 31 33 33 33 30 30 31 30 29 30 31 33 34 34 33 32 31 31 31
11 11 11 11 11 11 11 11 11 12 12 13 13 14 14 14 14 14 14 14 15 15 15 15 16 16 17 18 19 19 20 20 21 22 22 23 23 23 23 24 25 25 24 25 25 24 24 24 24 23 23 23 25 27 29 30 31 31 30 29 28 27 28 30 32 32 32 32 33 34 34 31 31 30 29 28 29 31 33 33 34 33 32 31 30 31
11 11 11 11 11 11 11 11 11 12 12 13 13 13 14 14 14 14 14 14 15 15 15 16 16 17 17 18 19 19 20 20 21 21 23 23 23 22 22 23 24 24 23 22 21 21 20 19 19 20 22 21 21 22 25 27 29 30 29 29 28 27 27 29 31 32 32 32 32 32 32 31 30 29 28 27 27 27 29 30 32 33 32 30 29 30
Wind_Direction
310 314 319 325 329 330 330 335 337 335 332 331 331 332 333 332 332 333 335 336 337 338 338 338 339 339 338 338 338 337 336 335 333 331 328 324 322 320 318 317 317 317 316 316 315 315 314 314 314 314 313 313 313 313 313 312 312 311 311 311 310 310 309 309 308 307 307 306 305 304 304 303 303 302 302 301 301 300 298 298 297 296 295 294 293 292
313 316 320 326 329 329 327 331 333 331 328 326 327 328 330 329 329 330 333 335 336 336 336 336 336 335 335 334 334 334 333 332 330 328 324 322 320 319 318 318 318 318 317 317 316 316 316 315 315 315 314 313 313 312 312 311 311 310 310 310 310 309 309 308 308 307 307 306 305 305 304 303 303 302 302 301 300 299 299 298 297 296 295 294 293 292
314 317 320 325 328 327 325 326 328 327 324 323 324 326 327 327 326 327 328 330 333 334 334 333 332 332 331 330 330 330 330 329 328 325 323 321 320 320 320 320 320 320 319 319 319 318 317 316 316 315 314 313 313 312 311 311 310 310 309 309 308 308 308 307 307 306 306 305 305 304 304 303 303 302 302 301 300 299 299 298 297 297 296 295 294 293
312 315 319 323 325 324 322 322 323 322 322 322 323 325 325 324 323 323 325 327 329 330 331 330 329 328 327 326 327 328 329 328 327 325 324 323 323 324 324 324 323 323 322 321 320 318 317 316 315 314 313 312 312 311 310 310 309 309 308 308 307 307 307 306 306 305 305 305 304 303 303 302 302 301 301 300 300 299 299 298 297 297 296 295 294 293
309 313 317 321 322 320 319 320 320 321 321 321 322 323 324 323 322 322 324 325 327 327 327 327 325 324 324 324 326 328 329 329 328 328 328 328 328 328 328 327 325 324 322 321 319 317 316 315 313 312 311 310 310 309 309 308 308 307 307 307 306 306 306 305 305 304 304 304 303 303 302 302 301 301 300 300 299 299 298 297 297 296 296 295 294 293
306 310 315 318 317 316 317 317 319 321 322 322 322 322 322 322 322 322 323 324 325 325 324 323 323 323 323 325 327 329 331 331 331 331 332 332 332 331 329 327 325 323 321 319 316 315 313 312 311 310 310 309 308 308 307 307 306 306 306 306 305 305 305 304 304 304 303 303 302 302 301 301 300 300 299 299 298 298 297 297 296 296 295 295 294 293
303 307 313 314 313 313 314 315 318 320 322 321 321 322 322 322 322 322 322 323 323 323 322 322 322 323 325 327 329 331 332 333 333 334 334 334 332 330 327 325 322 320 317 315 313 312 311 310 310 309 308 308 307 307 306 306 306 305 305 305 305 304 304 303 303 303 302 302 301 301 300 300 299 299 299 298 298 297 297 296 296 295 295 294 294 293
301 307 312 313 313 313 313 314 316 319 321 321 320 320 320 321 322 322 322 322 322 322 323 323 323 324 326 328 330 332 333 333 333 333 333 332 330 328 325 322 319 316 314 312 311 311 310 309 309 308 308 307 307 306 306 305 305 305 304 304 304 303 303 303 302 302 301 301 300 300 300 299 299 298 298 297 297 296 296 296 295 295 294 294 293 292
301 307 309 310 311 312 313 313 315 318 320 320 319 317 318 320 322 323 323 323 323 323 324 324 324 324 325 327 329 330 330 330 330 329 328 327 326 324 322 319 316 314 313 312 311 310 309 309 308 307 307 307 306 306 305 305 305 304 304 303 303 303 302 302 301 301 300 300 300 299 299 299 298 298 297 297 296 296 296 295 295 294 294 293 293 292
300 303 304 306 307 309 311 311 313 316 319 320 318 317 317 321 324 326 325 324 323 324 325 324 323 323 324 326 327 328 328 327 327 327 325 324 322 320 319 317 315 314 313 312 311 310 309 308 308 308 307 307 306 305 305 305 304 304 303 303 302 302 301 301 300 300 299 299 299 298 299 298 298 297 297 297 296 296 295 295 294 293 293 292 292 292
299 300 301 303 306 308 308 309 311 315 319 320 319 318 318 323 328 328 325 322 322 324 324 323 322 321 321 323 325 326 326 325 326 326 325 324 323 321 319 317 316 315 313 312 311 310 310 309 309 308 308 307 306 306 305 304 304 304 303 303 302 301 301 300 300 299 299 299 298 298 298 298 297 297 296 296 296 295 295 294 293 293 292 292 291 291
295 297 299 301 305 308 309 310 313 317 320 321 321 321 322 326 327 326 321 318 319 321 322 321 320 319 319 319 321 323 325 324 324 325 325 324 324 323 321 319 317 315 314 313 312 311 311 311 310 309 309 308 307 306 306 305 305 304 304 303 302 301 300 300 299 299 299 298 298 298 298 297 297 296 296 295 295 294 294 294 293 292 292 291 291 290
291 292 294 298 302 307 311 313 315 318 320 321 323 324 322 323 324 321 316 313 314 317 318 318 317 316 317 318 319 321 323 323 323 323 323 323 323 322 321 319 317 315 315 313 312 312 312 312 311 310 309 308 308 307 307 306 306 306 305 303 302 301 300 299 299 299 299 298 298 298 297 297 296 296 295 295 294 294 294 293 293 292 292 291 291 290
288 287 290 295 301 306 310 312 313 313 314 318 321 321 319 319 320 319 315 312 313 315 316 315 314 314 316 318 321 323 324 324 323 322 322 321 321 321 320 317 315 314 313 312 311 311 312 312 311 310 310 309 309 309 309 308 308 306 304 302 300 300 299 299 299 299 298 298 298 297 297 296 296 295 295 295 294 294 293 293 292 292 291 291 290 290
280 281 286 295 301 304 306 307 307 307 309 314 317 318 317 317 317 317 315 313 314 316 317 316 314 314 316 319 323 327 327 326 325 323 321 319 318 319 318 316 314 312 312 311 310 310 311 311 310 309 310 310 310 310 310 308 306 304 302 301 300 300 299 299 299 298 298 298 297 297 297 296 296 295 295 294 294 293 293 292 292 291 291 290 290 289
270 275 287 295 298 299 300 301 303 305 309 312 314 316 316 315 315 315 313 312 313 315 317 317 317 317 317 320 325 329 329 327 326 323 320 316 315 316 317 316 313 311 310 309 308 309 310 310 310 309 309 309 309 309 307 304 303 302 301 300 300 299 299 299 299 299 298 298 297 297 297 296 295 295 295 294 294 293 293 292 292 291 291 290 290 289
266 279 289 293 292 293 296 299 302 305 308 310 310 310 310 309 310 310 309 308 310 312 313 315 316 317 317 318 321 326 328 328 326 322 318 314 312 314 315 314 311 308 307 307 307 308 309 309 309 308 308 308 308 307 305 303 302 301 301 300 300 299 299 299 299 299 298 298 297 297 296 296 295 295 295 294 294 293 293 292 292 291 290 290 289 289
276 285 288 287 287 292 298 302 304 303 304 305 305 306 305 305 306 305 304 303 303 304 306 308 308 309 310 311 313 318 324 326 324 320 315 311 310 311 313 312 308 306 305 305 306 307 308 308 307 307 307 306 305 304 303 302 302 301 300 300 300 299 299 299 298 298 298 297 297 297 296 295 295 295 294 294 294 293 293 292 292 291 290 290 289 288
284 283 280 281 289 296 299 299 299 299 299 299 300 303 304 304 304 302 299 296 294 294 296 299 301 302 302 302 305 311 318 321 320 316 312 308 307 309 311 311 307 304 303 303 304 306 307 306 306 305 305 305 304 303 303 302 301 300 300 299 299 299 299 298 298 298 297 297 296 296 295 295 295 295 294 294 294 293 293 292 292 291 290 289 289 288
278 274 272 282 293 297 295 293 292 291 290 290 293 297 300 302 301 298 294 292 289 288 290 293 297 299 301 301 303 307 313 317 317 313 308 304 303 305 309 309 306 303 301 301 303 305 305 305 305 304 304 303 303 303 302 301 300 299 299 298 298 298 298 298 297 297 296 296 295 295 295 295 295 294 294 294 294 293 293 292 291 291 290 290 289 288
271 270 273 283 290 292 290 288 287 285 283 284 287 291 295 297 296 293 291 290 289 290 293 296 298 300 301 301 301 303 308 312 312 308 304 302 301 302 305 306 304 301 300 300 302 304 304 304 303 303 302 302 302 301 301 299 298 297 297 297 297 297 297 296 296 296 295 295 295 294 294 294 294 294 294 294 294 294 293 293 292 292 291 291 290 289
268 271 276 281 282 282 283 283 283 281 280 278 280 285 289 290 289 288 288 290 292 297 301 301 299 299 298 297 297 299 303 304 303 300 300 299 297 298 303 305 304 300 298 300 302 303 303 302 301 300 300 300 299 299 298 297 296 296 295 295 295 295 295 295 294 294 294 294 294 293 294 294 294 294 294 294 294 294 294 293 293 293 292 292 291 290
264 269 273 277 279 279 279 280 280 278 276 276 277 280 283 282 281 281 285 292 300 305 306 303 300 299 297 295 295 297 300 300 298 295 295 293 294 297 303 305 303 300 297 298 301 303 303 301 300 299 298 298 297 297 296 296 295 294 294 294 294 294 293 293 293 293 292 292 293 293 293 293 294 294 294 294 294 294 294 293 293 293 292 291 291 290
264 269 274 277 280 281 280 278 276 277 279 282 286 289 289 285 283 285 293 302 308 309 308 306 303 300 298 297 297 298 299 300 299 295 290 288 291 295 301 304 303 299 297 298 301 303 302 300 299 298 297 296 296 295 295 294 294 293 293 293 293 293 292 292 292 292 292 292 292 292 293 293 293 293 293 293 293 293 293 293 293 292 292 291 290 290
267 271 275 278 281 282 280 278 279 284 290 294 296 297 297 296 297 300 303 306 307 308 307 306 303 300 299 300 299 298 299 301 300 295 289 289 291 294 298 301 301 299 298 300 303 303 302 300 298 297 296 295 295 294 294 293 293 293 292 292 292 292 292 291 291 291 291 291 291 291 292 292 292 292 292 292 292 292 292 292 292 292 291 291 290 289
271 273 276 279 280 280 280 284 289 293 295 295 294 296 300 306 308 308 306 306 306 307 306 303 299 296 297 299 298 298 300 303 301 295 289 289 291 294 297 300 301 300 301 302 304 304 302 300 299 298 296 295 294 294 294 293 292 292 292 292 292 292 292 291 291 291 290 290 290 290 290 290 291 291 291 291 291 291 291 291 291 291 291 291 290 289
269 271 272 274 276 278 282 286 290 292 291 289 289 293 301 307 308 306 302 301 302 303 301 298 295 295 297 297 296 296 300 302 300 295 290 288 289 292 296 302 304 304 304 304 304 303 301 299 297 296 295 295 295 295 295 295 293 292 292 292 292 292 291 291 290 290 290 290 290 290 290 290 290 290 290 290 290 291 291 291 291 291 291 291 290 289
269 271 272 273 275 279 283 285 285 284 283 284 287 291 297 302 302 299 294 296 298 297 293 290 290 292 295 295 295 296 299 299 298 295 293 289 287 290 296 304 307 308 307 305 304 303 300 296 294 294 295 296 297 298 298 296 295 293 293 292 291 291 290 290 290 290 290 290 290 290 290 290 290 290 290 290 290 290 290 290 290 291 291 291 290 289
271 270 270 272 274 277 279 279 279 278 278 280 284 290 294 295 293 291 289 291 291 289 285 283 283 286 289 293 295 297 297 296 296 298 302 298 293 293 300 305 308 309 310 309 308 306 302 297 295 295 297 298 300 300 299 297 296 294 293 292 291 291 290 290 290 290 290 290 290 290 290 290 290 290 290 290 290 290 290 290 291 291 291 290 289 288
268 265 266 269 273 276 278 279 278 278 278 282 286 290 293 292 290 288 286 285 282 279 278 278 280 282 287 294 297 298 296 295 299 309 315 310 302 299 304 307 308 309 312 314 313 309 305 303 300 299 300 302 302 300 299 298 297 296 295 294 292 292 291 291 291 290 290 290 290 290 290 290 290 290 290 290 290 290 290 290 290 291 290 289 288 286
259 259 265 272 277 280 281 281 282 283 285 288 291 294 295 295 292 289 285 280 275 272 272 274 277 280 284 290 295 296 292 294 300 311 316 311 302 300 305 306 306 307 310 312 313 309 307 307 306 305 305 304 302 300 299 298 298 297 296 295 294 293 292 292 292 291 291 291 291 290 290 290 290 290 290 290 290 289 289 289 289 289 288 287 286 285
258 266 274 280 282 284 284 285 286 289 291 294 296 298 298 297 293 288 282 278 274 270 268 271 274 277 278 278 276 276 281 288 295 304 311 306 300 298 302 303 303 304 306 303 297 293 299 303 305 306 306 304 302 301 299 299 298 297 296 295 294 294 294 294 294 293 293 292 292 291 291 291 290 290 290 289 289 288 288 288 287 287 286 285 284 283
272 280 284 285 286 286 287 289 292 294 296 299 301 302 302 299 293 286 281 279 276 272 267 269 272 276 277 276 274 275 278 283 290 299 305 302 299 298 300 300 301 302 303 300 294 288 286 290 298 303 304 303 302 301 300 299 298 297 296 296 295 295 296 296 296 295 294 294 293 292 292 291 290 289 289 288 288 287 287 286 285 284 283 282 281 281
283 286 287 287 288 289 291 293 296 298 301 303 305 305 304 300 294 288 285 281 277 271 266 267 270 275 279 280 278 278 278 282 287 294 300 300 297 296 298 298 299 300 302 301 298 294 289 290 295 300 303 303 302 301 300 299 299 298 297 297 296 297 298 298 297 296 295 295 294 293 292 291 290 289 288 288 287 286 285 285 283 282 280 279 279 279
286 287 288 290 291 294 295 297 300 302 304 306 307 306 304 299 294 289 285 280 276 272 268 267 268 271 274 277 279 280 280 282 287 292 296 295 293 293 295 295 296 298 299 298 298 298 295 294 296 298 301 303 303 302 301 300 300 300 299 298 297 297 297 297 296 296 296 295 293 292 292 291 290 290 289 288 287 286 285 284 283 282 280 279 278 278
288 289 291 293 295 297 299 301 302 305 306 307 307 305 302 297 293 288 284 281 278 275 273 271 270 269 269 269 272 275 278 282 287 289 290 289 289 290 291 291 292 295 295 295 295 296 296 296 297 298 299 300 301 303 303 304 303 302 300 299 298 297 296 296 295 295 295 294 293 292 292 292 291 290 289 288 287 287 286 285 284 283 282 280 279 277
291 292 294 295 297 299 300 302 304 306 307 307 305 303 300 297 294 291 288 286 284 282 280 279 276 273 269 268 268 270 275 280 283 285 285 284 284 284 285 286 288 290 289 290 292 294 295 296 298 298 298 297 298 301 304 306 306 304 301 300 300 299 297 296 295 294 293 293 293 293 293 292 292 291 290 289 289 288 287 286 284 283 282 281 279 277
293 294 295 296 298 299 301 303 304 306 306 304 302 300 299 297 296 294 293 291 290 289 287 285 283 280 276 273 272 272 275 278 281 283 283 283 282 281 280 281 284 285 284 284 287 290 293 295 296 298 298 297 297 298 301 304 305 304 303 302 301 299 298 297 297 295 294 293 293 293 293 292 292 291 290 290 290 289 287 286 285 283 282 281 279 277
294 295 295 296 298 300 301 302 302 301 300 298 298 299 299 298 296 295 294 293 293 292 290 289 287 285 283 281 279 279 279 280 282 283 284 284 282 280 279 279 281 282 282 282 283 285 286 288 289 291 295 297 298 299 300 302 302 303 304 304 303 300 299 299 298 297 296 295 294 293 292 292 291 291 290 290 289 288 287 286 285 284 283 282 280 279
295 295 295 296 299 300 300 298 296 296 296 298 299 300 299 298 296 295 295 295 295 294 293 291 290 288 287 286 284 283 282 283 283 284 285 285 283 281 279 278 278 280 282 281 281 281 282 282 283 284 288 292 295 297 299 300 300 301 303 304 303 302 301 300 299 297 295 294 293 292 292 292 291 290 289 289 288 287 286 286 285 284 283 281 281 280
294 294 294 296 297 296 292 291 292 295 298 300 301 299 298 297 298 299 301 301 301 298 297 296 294 292 290 288 286 285 285 285 285 286 286 287 286 284 281 279 277 278 281 281 281 281 280 281 281 283 286 289 291 293 295 296 298 299 301 300 299 299 300 299 298 297 295 294 293 292 292 292 292 291 290 288 287 285 284 284 283 282 282 280 278 277
292 291 292 292 291 289 289 291 295 298 300 299 297 295 296 298 301 303 304 304 303 301 300 299 297 295 294 292 290 288 287 287 288 288 289 289 289 287 284 282 280 279 280 281 282 282 280 279 281 283 286 289 290 292 294 295 296 297 297 296 297 299 300 299 298 297 296 295 294 294 293 292 291 290 289 288 286 285 284 282 280 280 279 277 275 272
290 288 288 288 289 291 293 296 298 298 297 295 294 294 296 299 302 304 302 300 300 300 300 300 298 296 295 295 295 294 293 292 292 292 292 291 290 289 287 285 284 282 281 281 282 282 281 280 280 282 284 286 288 288 290 293 295 296 295 295 296 298 299 299 299 299 297 296 295 294 293 291 291 290 289 287 285 284 283 282 281 279 277 275 273 270
284 285 286 288 291 294 296 296 294 294 295 295 295 295 297 301 304 303 299 297 298 299 300 300 300 298 295 295 296 297 298 298 296 295 294 293 292 291 290 288 287 284 281 279 279 281 284 283 283 284 285 285 286 286 288 290 293 294 294 294 294 293 291 294 296 298 298 296 294 293 292 291 290 289 288 287 286 284 283 282 281 279 276 273 271 270
283 285 287 290 293 294 293 291 291 293 295 295 294 296 299 304 306 303 298 296 297 299 299 300 300 299 296 296 298 300 301 301 300 299 298 297 296 294 293 291 290 287 283 280 277 277 279 283 286 287 287 286 284 283 285 288 290 292 292 293 293 291 289 290 292 294 295 295 294 293 292 291 291 289 288 286 285 284 283 281 280 278 276 274 271 269
284 287 289 291 291 290 288 289 292 295 296 295 295 296 301 305 306 304 300 298 298 298 298 299 299 296 295 297 300 302 303 303 303 303 302 301 300 298 297 296 294 291 287 283 280 277 275 278 281 285 288 288 285 283 283 285 287 289 291 292 292 292 291 291 291 291 291 292 292 292 292 292 290 288 286 286 285 285 283 281 278 277 276 274 271 268
287 288 289 289 288 287 287 290 293 296 296 295 295 298 302 305 306 304 301 299 298 298 299 299 296 294 293 296 298 300 301 302 303 304 305 304 303 302 302 300 298 295 291 287 283 280 276 276 277 278 282 284 285 284 284 284 285 286 289 290 291 291 291 290 290 290 290 290 290 291 292 292 290 287 286 286 286 285 283 282 280 277 276 274 272 269
286 285 284 284 285 286 288 291 294 295 294 294 295 299 302 304 304 302 300 299 299 299 300 299 296 294 293 294 296 297 299 300 302 303 305 306 305 305 304 303 301 298 294 290 286 283 280 277 275 274 274 276 278 281 283 285 285 285 286 288 289 289 288 288 289 290 290 290 289 289 290 289 288 287 288 288 286 285 284 283 281 279 277 275 272 270
278 278 279 281 284 287 289 291 292 292 291 293 296 298 300 302 302 299 297 298 298 298 297 296 296 295 295 295 296 297 298 299 300 301 303 304 306 306 306 306 305 302 298 295 293 290 286 282 278 274 271 269 271 275 280 283 285 286 286 287 287 286 286 288 289 290 290 290 290 290 289 287 286 286 286 286 284 284 284 283 282 280 278 275 273 270
272 273 276 279 282 284 286 287 287 288 289 292 295 297 299 302 301 300 298 298 297 295 294 293 294 294 295 295 296 298 298 299 300 301 302 304 305 305 306 307 307 306 304 302 300 298 295 292 288 282 276 270 269 272 277 281 285 287 287 287 286 286 286 288 289 290 291 291 291 291 290 287 286 285 283 282 281 282 283 283 282 281 279 277 274 271
270 272 275 278 279 280 281 282 284 285 287 290 293 295 298 300 301 300 299 298 296 295 294 293 293 292 292 294 296 297 298 299 299 300 301 303 304 303 302 304 306 306 306 305 304 303 302 300 297 294 290 284 279 276 278 283 287 290 290 289 288 287 287 287 288 290 290 291 291 290 290 288 286 284 282 280 280 281 282 282 282 281 280 279 276 273